TimeCST,TemperatureF,Dew PointF,Humidity,Sea Level PressureIn,VisibilityMPH,Wind Direction,Wind SpeedMPH,Gust SpeedMPH,PrecipitationIn,Events,Conditions,WindDirDegrees,DateUTC
12:15 AM,8.6,6.8,92,30.16,10.0,ESE,6.9,-,N/A,,Clear,110,2012-11-14 06:15:00
12:35 AM,8.6,6.8,92,30.16,10.0,ESE,5.8,-,N/A,,Mostly Cloudy,110,2012-11-14 06:35:00
12:55 AM,8.6,6.8,92,30.16,10.0,ESE,4.6,-,N/A,,Overcast,110,2012-11-14 06:55:00
1:15 AM,10.4,8.6,92,30.15,10.0,SE,8.1,-,N/A,,Overcast,130,2012-11-14 07:15:00
1:35 AM,14.0,10.4,86,30.14,10.0,SE,6.9,-,N/A,,Overcast,140,2012-11-14 07:35:00
1:55 AM,15.8,10.4,79,30.15,10.0,SSE,5.8,-,N/A,,Overcast,160,2012-11-14 07:55:00
2:15 AM,15.8,10.4,79,30.15,10.0,SSE,8.1,-,N/A,,Overcast,160,2012-11-14 08:15:00
2:35 AM,14.0,10.4,86,30.14,10.0,SSE,9.2,-,N/A,,Overcast,150,2012-11-14 08:35:00
2:55 AM,14.0,10.4,86,30.14,10.0,SSE,6.9,-,N/A,,Mostly Cloudy,150,2012-11-14 08:55:00
3:15 AM,12.2,8.6,85,30.14,10.0,South,5.8,-,N/A,,Mostly Cloudy,170,2012-11-14 09:15:00
3:35 AM,12.2,10.4,92,30.14,9.0,South,6.9,-,N/A,,Mostly Cloudy,170,2012-11-14 09:35:00
3:55 AM,14.0,14.0,100,30.13,0.5,SSE,5.8,-,N/A,Fog,Light Freezing Fog,160,2012-11-14 09:55:00
4:15 AM,15.8,15.8,100,30.13,0.2,South,5.8,-,N/A,Fog,Light Freezing Fog,170,2012-11-14 10:15:00
4:35 AM,15.8,15.8,100,30.13,0.2,South,9.2,-,N/A,Fog,Light Freezing Fog,180,2012-11-14 10:35:00
4:55 AM,17.6,17.6,100,30.11,0.2,South,10.4,-,N/A,Fog,Light Freezing Fog,170,2012-11-14 10:55:00
5:15 AM,17.6,17.6,100,30.11,0.2,South,9.2,-,N/A,Fog,Light Freezing Fog,170,2012-11-14 11:15:00
5:35 AM,17.6,17.6,100,30.11,0.2,South,11.5,-,N/A,Fog,Light Freezing Fog,180,2012-11-14 11:35:00
5:55 AM,19.4,19.4,100,30.10,5.0,South,12.7,-,N/A,,Overcast,180,2012-11-14 11:55:00
6:15 AM,17.6,17.6,100,30.09,5.0,South,10.4,-,N/A,,Overcast,180,2012-11-14 12:15:00
6:35 AM,17.6,17.6,100,30.09,6.0,South,10.4,-,N/A,,Overcast,170,2012-11-14 12:35:00
6:55 AM,15.8,15.8,100,30.09,8.0,South,6.9,-,N/A,,Overcast,180,2012-11-14 12:55:00
7:15 AM,15.8,15.8,100,30.09,2.5,South,6.9,-,N/A,,Overcast,180,2012-11-14 13:15:00
7:35 AM,15.8,15.8,100,30.08,0.2,South,6.9,-,N/A,Fog,Light Freezing Fog,170,2012-11-14 13:35:00
7:55 AM,15.8,15.8,100,30.08,0.2,SSE,5.8,-,N/A,Fog,Light Freezing Fog,160,2012-11-14 13:55:00
8:15 AM,15.8,15.8,100,30.07,0.2,South,5.8,-,N/A,Fog,Light Freezing Fog,170,2012-11-14 14:15:00
8:35 AM,15.8,15.8,100,30.07,0.2,South,6.9,-,N/A,Fog,Light Freezing Fog,170,2012-11-14 14:35:00
8:55 AM,15.8,15.8,100,30.07,0.2,South,9.2,-,N/A,Fog,Light Freezing Fog,180,2012-11-14 14:55:00
9:15 AM,15.8,15.8,100,30.06,0.2,South,6.9,-,N/A,Fog,Light Freezing Fog,170,2012-11-14 15:15:00
9:35 AM,17.6,17.6,100,30.06,0.2,South,6.9,-,N/A,Fog,Light Freezing Fog,180,2012-11-14 15:35:00
9:55 AM,17.6,17.6,100,30.06,0.2,South,10.4,-,N/A,Fog,Light Freezing Fog,190,2012-11-14 15:55:00
10:15 AM,19.4,19.4,100,30.05,0.2,South,11.5,-,N/A,Fog,Light Freezing Fog,190,2012-11-14 16:15:00
10:35 AM,21.2,21.2,100,30.05,0.2,SSW,11.5,-,N/A,Fog,Light Freezing Fog,200,2012-11-14 16:35:00
10:55 AM,21.2,21.2,100,30.05,0.2,SSW,13.8,-,N/A,Fog,Light Freezing Fog,200,2012-11-14 16:55:00
11:15 AM,23.0,23.0,100,30.04,0.2,North,4.6,-,N/A,Fog,Light Freezing Fog,360,2012-11-14 17:15:00
11:35 AM,23.0,23.0,100,30.03,0.2,North,4.6,-,N/A,Fog,Light Freezing Fog,360,2012-11-14 17:35:00
11:55 AM,23.0,23.0,100,30.02,0.2,SSW,15.0,-,N/A,Fog,Light Freezing Fog,200,2012-11-14 17:55:00
12:15 PM,23.0,23.0,100,30.01,0.2,SSW,13.8,-,N/A,Fog,Light Freezing Fog,200,2012-11-14 18:15:00
12:35 PM,23.0,23.0,100,30.00,0.2,North,4.6,-,N/A,Fog,Light Freezing Fog,360,2012-11-14 18:35:00
12:55 PM,24.8,24.8,100,29.99,0.2,North,4.6,-,N/A,Fog,Light Freezing Fog,360,2012-11-14 18:55:00
1:15 PM,24.8,24.8,100,29.99,0.2,North,4.6,-,N/A,Fog,Light Freezing Fog,360,2012-11-14 19:15:00
1:35 PM,24.8,24.8,100,29.98,0.2,North,4.6,-,N/A,Fog,Light Freezing Fog,360,2012-11-14 19:35:00
1:55 PM,24.8,24.8,100,29.98,0.2,North,4.6,-,N/A,Fog,Light Freezing Fog,360,2012-11-14 19:55:00
2:15 PM,24.8,24.8,100,29.97,0.5,North,4.6,-,N/A,Fog,Light Freezing Fog,360,2012-11-14 20:15:00
2:35 PM,24.8,24.8,100,29.96,2.5,SSW,9.2,-,N/A,,Overcast,200,2012-11-14 20:35:00
2:55 PM,24.8,24.8,100,29.96,3.0,SSW,8.1,-,N/A,,Mostly Cloudy,210,2012-11-14 20:55:00
3:15 PM,24.8,24.8,100,29.96,5.0,SSW,6.9,-,N/A,,Partly Cloudy,210,2012-11-14 21:15:00
3:35 PM,24.8,24.8,100,29.95,7.0,SSW,8.1,-,N/A,,Clear,200,2012-11-14 21:35:00
3:55 PM,24.8,24.8,100,29.95,8.0,SSW,10.4,-,N/A,,Clear,200,2012-11-14 21:55:00
4:15 PM,26.6,26.6,100,29.95,9.0,SSW,10.4,-,N/A,,Mostly Cloudy,200,2012-11-14 22:15:00
4:35 PM,26.6,26.6,100,29.94,10.0,SSW,10.4,-,N/A,,Scattered Clouds,200,2012-11-14 22:35:00
4:55 PM,26.6,26.6,100,29.94,9.0,SSW,11.5,-,N/A,,Scattered Clouds,210,2012-11-14 22:55:00
5:15 PM,26.6,26.6,100,29.94,10.0,SSW,13.8,-,N/A,,Mostly Cloudy,210,2012-11-14 23:15:00
5:35 PM,26.6,26.6,100,29.93,10.0,SSW,11.5,-,N/A,,Mostly Cloudy,210,2012-11-14 23:35:00
5:55 PM,24.8,24.8,100,29.93,10.0,SSW,11.5,-,N/A,,Partly Cloudy,210,2012-11-14 23:55:00
6:15 PM,24.8,24.8,100,29.94,10.0,SSW,10.4,-,N/A,,Clear,200,2012-11-15 00:15:00
6:35 PM,24.8,24.8,100,29.93,10.0,SSW,11.5,-,N/A,,Clear,200,2012-11-15 00:35:00
6:55 PM,24.8,24.8,100,29.93,10.0,SSW,12.7,-,N/A,,Clear,200,2012-11-15 00:55:00
7:15 PM,24.8,24.8,100,29.93,10.0,SSW,11.5,-,N/A,,Clear,210,2012-11-15 01:15:00
7:35 PM,23.0,23.0,100,29.94,10.0,SW,9.2,-,N/A,,Partly Cloudy,220,2012-11-15 01:35:00
7:55 PM,23.0,23.0,100,29.94,10.0,SW,10.4,-,N/A,,Scattered Clouds,230,2012-11-15 01:55:00
8:15 PM,23.0,23.0,100,29.94,10.0,SW,11.5,-,N/A,,Clear,230,2012-11-15 02:15:00
8:35 PM,23.0,23.0,100,29.93,10.0,SW,11.5,-,N/A,,Clear,220,2012-11-15 02:35:00
8:55 PM,23.0,23.0,100,29.93,10.0,SW,10.4,-,N/A,,Clear,230,2012-11-15 02:55:00
9:15 PM,23.0,23.0,100,29.93,10.0,SW,12.7,-,N/A,,Clear,230,2012-11-15 03:15:00
9:35 PM,24.8,24.8,100,29.93,10.0,SW,11.5,-,N/A,,Clear,230,2012-11-15 03:35:00
9:55 PM,23.0,23.0,100,29.95,10.0,West,10.4,-,N/A,,Clear,260,2012-11-15 03:55:00
10:15 PM,23.0,23.0,100,29.94,10.0,WSW,11.5,-,N/A,,Clear,250,2012-11-15 04:15:00
10:35 PM,23.0,23.0,100,29.94,10.0,WSW,11.5,-,N/A,,Clear,250,2012-11-15 04:35:00
10:55 PM,23.0,23.0,100,29.95,10.0,West,13.8,-,N/A,,Clear,270,2012-11-15 04:55:00
11:15 PM,24.8,24.8,100,29.95,10.0,West,13.8,-,N/A,,Clear,260,2012-11-15 05:15:00
11:35 PM,24.8,24.8,100,29.96,10.0,West,15.0,-,N/A,,Clear,270,2012-11-15 05:35:00
11:55 PM,23.0,23.0,100,29.97,10.0,West,13.8,-,N/A,,Clear,280,2012-11-15 05:55:00